Total_Precipitation_Accumulation
1.10 1.55 1.57 1.36 1.17 1.19 1.10 0.98 1.41 1.61 1.45 1.96 4.22 2.67 1.58 1.30 1.35 0.85 0.27 0.08 0.11 0.27 0.44 0.14 0.06 0.09 0.35 0.61 1.04 1.25 1.87 0.77 0.15 0.04 0.04 0.00 0.02 0.08 0.06 0.04 0.04 0.14 0.25 0.16 0.36
1.55 2.19 3.12 1.81 2.06 1.34 0.88 1.06 1.41 1.62 1.51 2.09 4.70 4.48 2.36 1.88 1.32 0.52 0.12 0.15 0.41 0.68 0.43 0.23 0.11 0.16 0.34 0.52 1.10 2.12 1.59 0.56 0.08 0.07 0.07 0.02 0.00 0.01 0.08 0.13 0.11 0.17 0.22 0.20 0.36
1.86 2.63 2.33 2.10 2.13 1.50 1.00 0.99 1.24 1.21 1.32 2.29 3.88 4.72 2.48 1.56 1.17 0.30 0.20 0.30 0.78 1.01 0.54 0.25 0.31 0.40 0.27 0.45 0.88 1.25 1.28 0.14 0.04 0.18 0.25 0.15 0.02 0.02 0.03 0.10 0.03 0.08 0.18 0.36 0.73
1.21 1.74 1.85 1.67 1.40 1.27 1.02 0.89 1.18 1.31 1.41 2.14 3.54 3.32 2.01 1.53 0.88 0.32 0.16 0.42 0.94 1.52 1.02 0.43 0.39 0.49 0.36 0.30 0.42 0.95 0.48 0.32 0.20 0.22 0.42 0.24 0.13 0.12 0.09 0.02 0.02 0.05 0.24 0.49 0.76
1.06 1.37 1.35 1.25 1.07 1.41 1.14 1.02 1.28 1.34 1.10 2.01 2.93 2.59 1.75 1.32 0.49 0.33 0.51 0.40 0.87 1.71 1.04 0.61 0.41 0.47 0.32 0.21 0.44 0.67 0.47 0.32 0.45 0.44 0.34 0.46 0.55 0.16 0.05 0.03 0.04 0.11 0.30 0.39 0.63
1.09 1.18 1.26 1.28 1.54 1.85 1.68 1.67 1.54 1.09 0.89 1.56 2.20 1.91 1.35 0.95 0.17 0.24 0.55 0.59 0.76 1.39 1.26 1.18 0.52 0.50 0.35 0.20 0.42 0.28 0.50 0.63 0.82 0.81 0.87 0.80 0.71 0.52 0.12 0.07 0.18 0.26 0.32 0.25 0.34
1.21 1.54 1.68 1.67 1.93 1.76 1.65 1.48 1.20 1.09 1.12 1.61 1.92 1.39 1.38 0.75 0.11 0.27 0.47 0.82 1.08 1.23 1.11 1.29 0.78 1.17 0.81 0.33 0.11 0.35 0.80 0.91 1.03 1.03 1.15 1.10 0.94 0.71 0.24 0.14 0.21 0.29 0.42 0.54 0.34
0.99 1.09 1.24 1.39 1.34 1.20 1.09 0.96 0.84 0.83 1.58 1.83 1.70 1.40 0.92 0.31 0.10 0.20 0.36 0.82 1.01 1.18 1.24 1.51 1.21 1.44 1.12 0.46 0.24 0.45 0.90 1.51 0.83 1.11 1.12 1.71 1.59 0.26 0.27 0.30 0.25 0.23 0.33 0.58 0.50
0.77 0.96 1.02 0.92 0.84 0.87 0.92 0.83 0.83 0.94 1.59 1.99 1.59 1.31 0.92 0.31 0.20 0.23 0.21 0.62 1.06 1.48 1.72 2.28 2.43 1.88 1.40 0.90 0.83 0.62 0.74 0.95 0.87 0.87 1.29 1.62 1.61 0.44 0.26 0.43 0.26 0.22 0.17 0.26 0.67
0.69 0.78 0.76 0.60 0.61 0.96 1.36 1.31 1.69 1.84 2.05 1.92 1.64 1.55 0.85 0.21 0.15 0.20 0.27 0.74 1.45 1.99 2.65 3.18 3.80 2.39 1.89 1.47 1.36 0.43 0.45 0.42 0.59 0.57 1.23 1.38 1.26 0.67 0.40 0.35 0.32 0.17 0.10 0.09 0.20
0.63 0.65 0.62 0.63 0.80 1.42 2.07 1.95 1.64 2.60 2.05 1.90 1.23 0.65 0.54 0.29 0.33 0.39 0.53 1.25 2.18 2.72 2.57 2.56 3.17 1.87 1.14 0.73 0.54 0.39 0.25 0.25 0.26 0.29 0.69 1.02 0.73 0.61 0.69 0.51 0.41 0.31 0.07 0.04 0.08
0.55 0.69 0.72 0.78 1.19 1.74 1.72 2.03 1.53 2.03 2.84 1.35 0.59 0.46 0.24 0.34 0.56 0.54 1.08 2.54 2.23 2.68 2.10 1.99 1.76 0.79 0.55 0.82 0.71 0.50 0.42 0.37 0.37 0.60 0.67 0.78 0.66 0.44 0.68 0.67 0.48 0.51 0.22 0.08 0.05
0.62 0.72 0.78 0.89 1.19 1.91 1.41 1.93 1.41 0.92 1.89 1.85 0.93 0.61 0.32 0.58 0.84 0.86 1.67 2.59 2.06 2.06 1.75 1.25 0.71 0.72 0.74 0.78 1.22 0.65 0.47 0.31 0.59 0.56 0.67 0.79 0.82 0.44 0.45 0.44 0.50 0.53 0.61 0.23 0.10
0.73 0.74 0.92 1.16 1.55 1.42 2.13 1.40 1.37 0.97 1.45 1.92 1.48 0.80 0.58 0.85 1.16 0.88 1.36 2.16 2.34 2.09 1.89 1.30 0.64 0.58 0.75 1.03 1.05 0.88 0.36 0.41 0.57 0.90 0.81 0.66 0.97 0.26 0.28 0.44 0.42 0.41 0.58 0.48 0.20
0.72 0.82 0.97 1.49 1.49 1.33 1.66 1.48 1.28 1.18 2.05 1.85 1.33 0.70 0.59 0.84 1.06 1.11 1.25 1.83 1.75 1.90 2.19 1.49 0.67 0.71 0.81 0.90 0.63 0.86 0.45 0.48 0.53 0.73 0.86 0.53 0.75 0.21 0.15 0.26 0.29 0.22 0.25 0.47 0.47
1.13 1.25 1.38 1.28 1.09 0.99 1.00 1.46 1.55 1.34 2.00 1.45 0.96 0.80 0.89 0.64 0.56 0.66 1.17 1.64 1.84 1.72 1.56 0.96 0.71 0.91 0.63 0.69 0.71 1.13 1.28 0.97 0.71 0.77 1.42 0.66 0.75 0.22 0.25 0.23 0.27 0.36 0.19 0.35 0.69
1.57 1.84 1.86 1.48 1.06 0.72 1.18 1.54 1.73 1.35 0.89 0.55 0.43 0.32 0.34 0.28 0.40 0.44 0.84 1.23 1.69 2.24 2.07 1.44 0.93 0.95 0.62 0.98 1.09 1.46 1.64 2.34 2.37 2.18 1.01 0.36 0.82 0.50 0.10 0.09 0.16 0.38 0.15 0.23 0.64
1.63 1.49 1.25 1.03 0.94 1.37 1.39 1.30 1.74 1.11 0.55 0.23 0.11 0.24 0.23 0.21 0.27 0.29 0.57 0.96 0.72 0.81 1.55 1.69 1.67 1.02 0.85 0.80 1.21 0.91 1.05 2.13 2.01 1.39 0.58 0.59 0.90 0.57 0.21 0.12 0.18 0.41 0.28 0.21 0.40
1.88 1.52 1.42 1.16 1.09 1.61 1.48 1.40 1.41 0.85 0.39 0.20 0.23 0.35 0.46 0.22 0.22 0.38 0.48 0.68 0.63 0.68 1.47 1.34 1.10 0.47 0.57 0.54 0.68 0.90 1.01 0.65 1.02 0.72 0.82 0.67 0.77 0.71 0.41 0.19 0.29 0.31 0.29 0.25 0.31
1.57 1.68 1.38 1.19 1.16 1.54 1.63 1.28 0.71 0.20 0.21 0.11 0.28 0.28 0.33 0.23 0.35 0.40 0.48 0.68 0.55 0.62 0.93 0.69 0.88 0.31 0.33 0.65 0.72 0.67 0.46 0.84 1.10 1.15 0.84 0.47 0.34 0.78 0.72 0.67 0.63 0.49 0.40 0.39 0.52
1.52 1.88 1.80 1.17 1.48 1.84 1.76 1.26 0.42 0.06 0.07 0.14 0.18 0.28 0.32 0.34 0.18 0.16 0.28 0.28 0.30 0.22 0.21 0.46 0.77 0.40 0.38 0.74 0.89 0.58 0.60 0.78 0.58 0.52 0.82 0.52 0.57 0.80 0.71 0.82 0.71 0.62 0.78 0.86 1.02
2.00 1.89 1.87 1.30 1.77 1.61 1.22 0.84 0.28 0.08 0.04 0.14 0.13 0.19 0.26 0.20 0.22 0.15 0.12 0.19 0.17 0.32 0.22 0.31 0.62 0.42 0.36 0.38 0.35 0.46 0.29 0.49 0.80 0.65 0.81 0.67 0.55 0.46 0.51 0.62 0.70 0.70 0.89 0.97 1.11
2.28 2.05 1.99 1.08 1.10 0.80 0.59 0.31 0.31 0.25 0.17 0.29 0.27 0.27 0.23 0.20 0.52 0.19 0.28 0.21 0.13 0.21 0.43 0.33 0.70 0.65 0.68 0.72 0.43 0.62 0.48 0.38 0.48 0.88 0.74 0.64 0.24 0.13 0.17 0.27 0.37 0.44 0.51 0.61 0.61
2.32 2.22 2.39 1.46 0.60 0.55 0.65 0.33 0.23 0.19 0.33 0.24 0.30 0.31 0.35 0.23 0.23 0.45 0.32 0.38 0.31 0.22 0.30 0.76 0.65 0.48 0.49 0.93 1.06 0.81 0.44 0.35 0.60 1.00 0.48 0.29 0.11 0.10 0.10 0.08 0.12 0.12 0.12 0.12 0.10
2.06 1.16 0.83 1.04 0.44 0.44 0.59 0.56 0.29 0.34 0.25 0.30 0.29 0.25 0.44 0.53 0.23 0.24 0.28 0.30 0.24 0.47 0.48 0.81 0.59 0.32 0.28 0.40 0.77 0.63 0.44 0.41 0.62 0.42 0.62 0.34 0.18 0.16 0.15 0.13 0.12 0.09 0.07 0.06 0.08
2.16 1.22 0.86 0.43 0.19 0.28 0.36 0.40 0.28 0.42 0.36 0.34 0.32 0.19 0.20 0.41 0.44 0.35 0.30 0.32 0.35 0.42 0.61 0.80 0.74 0.69 0.72 0.50 0.52 0.44 0.27 0.42 0.39 0.28 0.30 0.26 0.27 0.26 0.18 0.11 0.14 0.11 0.05 0.03 0.04
2.26 1.51 1.69 0.75 0.13 0.26 0.24 0.29 0.30 0.30 0.24 0.13 0.15 0.24 0.13 0.10 0.10 0.07 0.10 0.35 0.51 0.51 0.69 0.98 1.02 1.31 1.05 0.56 0.61 0.59 0.51 0.47 0.60 0.67 0.54 0.48 0.39 0.26 0.43 0.57 0.49 0.18 0.07 0.04 0.03